This is the latest recevied weather packets stored in our database for station/object KM4KBD. If no packets are shown the sender has not sent any weather packets the latest 10 day(s).
| Time | Temp. | Humidity | Pressure | Rain* | Wind** | Luminosity | Snow |
|---|---|---|---|---|---|---|---|
| 1777885293 | 12.22° C | 69% | 1019.2 hPa | 0 mm | - | 0 W/m² | - |
| 1777884992 | 12.22° C | 68% | 1019.3 hPa | 0 mm | - | 0 W/m² | - |
| 1777884686 | 12.22° C | 67% | 1019.3 hPa | 0 mm | - | 0 W/m² | - |
| 1777884384 | 12.22° C | 67% | 1019.1 hPa | 0 mm | - | 0 W/m² | - |
| 1777884080 | 12.22° C | 65% | 1019.6 hPa | 0 mm | - | 0 W/m² | - |
| 1777883778 | 12.22° C | 65% | 1019.4 hPa | 0 mm | - | 0 W/m² | - |
| 1777883474 | 12.22° C | 64% | 1018.9 hPa | 0 mm | - | 0 W/m² | - |
| 1777883170 | 12.22° C | 64% | 1019.3 hPa | 0 mm | - | 0 W/m² | - |
| 1777882867 | 12.22° C | 63% | 1019.2 hPa | 0 mm | - | 0 W/m² | - |
| 1777882564 | 12.22° C | 64% | 1019.2 hPa | 0 mm | - | 0 W/m² | - |
| 1777882259 | 12.78° C | 62% | 1019.3 hPa | 0 mm | - | 0 W/m² | - |
| 1777881957 | 12.78° C | 61% | 1019.6 hPa | 0 mm | - | 0 W/m² | - |
| 1777881653 | 12.22° C | 61% | 1019.8 hPa | 0 mm | - | 0 W/m² | - |
| 1777881349 | 12.22° C | 61% | 1019.5 hPa | 0 mm | - | 0 W/m² | - |
| 1777881047 | 12.22° C | 61% | 1019.7 hPa | 0 mm | - | 0 W/m² | - |
| 1777880443 | 11.67° C | 64% | 1019.8 hPa | 0 mm | - | 0 W/m² | - |
| 1777880141 | 12.22° C | 62% | 1020 hPa | 0 mm | - | 0 W/m² | - |
| 1777879839 | 11.67° C | 63% | 1020.1 hPa | 0 mm | - | 0 W/m² | - |
| 1777879537 | 12.22° C | 62% | 1020.4 hPa | 0 mm | - | 0 W/m² | - |
| 1777879233 | 12.22° C | 61% | 1020.2 hPa | 0 mm | - | 0 W/m² | - |
| 1777878930 | 12.22° C | 60% | 1020 hPa | 0 mm | - | 0 W/m² | - |
| 1777878627 | 12.22° C | 60% | 1020 hPa | 0 mm | - | 0 W/m² | - |
| 1777878325 | 12.22° C | 60% | 1020.1 hPa | 0 mm | - | 0 W/m² | - |
| 1777878020 | 12.22° C | 62% | 1020.1 hPa | 0 mm | - | 0 W/m² | - |
| 1777877716 | 12.22° C | 60% | 1019.9 hPa | 0 mm | - | 0 W/m² | - |
* Rain latest hour (hover to see other rain measurements)
** Current wind speed in m/s (hover to see current wind gust speed)